owner,sensor,date,latitude,longitude,vertical_datum,direction_of_sea_water_velocity,sea_water_speed,upward_sea_water_velocity,qcFlag 
TABS,ioos:station:wmo:42044:1,2017-01-05T00:00:00Z,26.1914,-97.0507,2.0,33.01815452,32.8682476,-99999.0,'11111222,11111222,99999999' 
TABS,ioos:station:wmo:42044:1,2017-01-05T00:30:00Z,26.1914,-97.0507,2.0,34.80626146,18.93828398,-99999.0,'11111222,11111222,99999999' 
TABS,ioos:station:wmo:42044:1,2017-01-05T01:00:00Z,26.1914,-97.0507,2.0,52.38717985,28.37838614,-99999.0,'11111222,11111222,99999999' 
TABS,ioos:station:wmo:42044:1,2017-01-05T01:30:00Z,26.1914,-97.0507,2.0,88.63807041,27.34772568,-99999.0,'11111222,11111222,99999999' 
TABS,ioos:station:wmo:42044:1,2017-01-05T02:00:00Z,26.1914,-97.0507,2.0,329.6010685,27.15297405,-99999.0,'11111222,11111222,99999999' 
TABS,ioos:station:wmo:42044:1,2017-01-05T02:30:00Z,26.1914,-97.0507,2.0,70.11856873,34.19828212,-99999.0,'11111222,11111222,99999999' 
TABS,ioos:station:wmo:42044:1,2017-01-05T03:00:00Z,26.1914,-97.0507,2.0,23.04442694,35.10096295,-99999.0,'11111222,11111222,99999999' 
TABS,ioos:station:wmo:42044:1,2017-01-05T03:30:00Z,26.1914,-97.0507,2.0,50.43562194,55.9859018,-99999.0,'11111222,11111222,99999999' 
TABS,ioos:station:wmo:42044:1,2017-01-05T04:00:00Z,26.1914,-97.0507,2.0,289.9607145,21.50162087,-99999.0,'11111222,11111222,99999999' 
TABS,ioos:station:wmo:42044:1,2017-01-05T04:30:00Z,26.1914,-97.0507,2.0,91.7451581,62.38893812,-99999.0,'11111222,11111222,99999999' 
TABS,ioos:station:wmo:42044:1,2017-01-05T05:00:00Z,26.1914,-97.0507,2.0,81.14703561,23.65177583,-99999.0,'11111222,11111222,99999999' 
TABS,ioos:station:wmo:42044:1,2017-01-05T05:30:00Z,26.1914,-97.0507,2.0,154.3422928,23.71871202,-99999.0,'11111222,11111222,99999999' 
TABS,ioos:station:wmo:42044:1,2017-01-05T06:00:00Z,26.1914,-97.0507,2.0,156.5688964,23.31233579,-99999.0,'11111222,11111222,99999999' 
TABS,ioos:station:wmo:42044:1,2017-01-05T06:30:00Z,26.1914,-97.0507,2.0,159.1392869,25.10568063,-99999.0,'11111222,11111222,99999999' 
TABS,ioos:station:wmo:42044:1,2017-01-05T07:00:00Z,26.1914,-97.0507,2.0,162.2163997,22.52636011,-99999.0,'11111222,11111222,99999999' 
TABS,ioos:station:wmo:42044:1,2017-01-05T07:30:00Z,26.1914,-97.0507,2.0,165.7025382,21.82600742,-99999.0,'11111222,11111222,99999999' 
TABS,ioos:station:wmo:42044:1,2017-01-05T08:00:00Z,26.1914,-97.0507,2.0,162.9497452,20.80437694,-99999.0,'11111222,11111222,99999999' 
TABS,ioos:station:wmo:42044:1,2017-01-05T08:30:00Z,26.1914,-97.0507,2.0,164.0576052,24.79358183,-99999.0,'11111222,11111222,99999999' 
TABS,ioos:station:wmo:42044:1,2017-01-05T09:00:00Z,26.1914,-97.0507,2.0,167.8431213,24.55053767,-99999.0,'11111222,11111222,99999999' 
TABS,ioos:station:wmo:42044:1,2017-01-05T09:30:00Z,26.1914,-97.0507,2.0,171.2838951,24.48273065,-99999.0,'11111222,11111222,99999999' 
TABS,ioos:station:wmo:42044:1,2017-01-05T10:00:00Z,26.1914,-97.0507,2.0,168.5864619,23.90267349,-99999.0,'11111222,11111222,99999999' 
TABS,ioos:station:wmo:42044:1,2017-01-05T10:30:00Z,26.1914,-97.0507,2.0,172.0563363,24.74745441,-99999.0,'11111222,11111222,99999999' 
TABS,ioos:station:wmo:42044:1,2017-01-05T11:00:00Z,26.1914,-97.0507,2.0,170.4656654,23.60606913,-99999.0,'11111222,11111222,99999999' 
TABS,ioos:station:wmo:42044:1,2017-01-05T11:30:00Z,26.1914,-97.0507,2.0,168.8674297,25.94825042,-99999.0,'11111222,11111222,99999999' 
TABS,ioos:station:wmo:42044:1,2017-01-05T12:00:00Z,26.1914,-97.0507,2.0,166.9425583,28.10670561,-99999.0,'11111222,11111222,99999999' 
TABS,ioos:station:wmo:42044:1,2017-01-05T12:30:00Z,26.1914,-97.0507,2.0,163.2615107,28.090178,-99999.0,'11111222,11111222,99999999' 
TABS,ioos:station:wmo:42044:1,2017-01-05T13:00:00Z,26.1914,-97.0507,2.0,169.0823133,29.77897245,-99999.0,'11111222,11111222,99999999' 
TABS,ioos:station:wmo:42044:1,2017-01-05T13:30:00Z,26.1914,-97.0507,2.0,171.8487705,30.9627938,-99999.0,'11111222,11111222,99999999' 
TABS,ioos:station:wmo:42044:1,2017-01-05T14:00:00Z,26.1914,-97.0507,2.0,169.8821489,28.74704333,-99999.0,'11111222,11111222,99999999' 
TABS,ioos:station:wmo:42044:1,2017-01-05T14:30:00Z,26.1914,-97.0507,2.0,168.1996654,29.34004772,-99999.0,'11111222,11111222,99999999' 
TABS,ioos:station:wmo:42044:1,2017-01-05T15:00:00Z,26.1914,-97.0507,2.0,171.6736941,29.76371281,-99999.0,'11111222,11111222,99999999' 
TABS,ioos:station:wmo:42044:1,2017-01-05T15:30:00Z,26.1914,-97.0507,2.0,168.6493398,30.48626084,-99999.0,'11111222,11111222,99999999' 
TABS,ioos:station:wmo:42044:1,2017-01-05T16:00:00Z,26.1914,-97.0507,2.0,169.0224056,31.08885331,-99999.0,'11111222,11111222,99999999' 
TABS,ioos:station:wmo:42044:1,2017-01-05T16:30:00Z,26.1914,-97.0507,2.0,173.1525213,35.31186345,-99999.0,'11111222,11111222,99999999' 
TABS,ioos:station:wmo:42044:1,2017-01-05T17:00:00Z,26.1914,-97.0507,2.0,167.3164318,32.56463419,-99999.0,'11111222,11111222,99999999' 
TABS,ioos:station:wmo:42044:1,2017-01-05T17:30:00Z,26.1914,-97.0507,2.0,170.0348846,33.92174819,-99999.0,'11111222,11111222,99999999' 
TABS,ioos:station:wmo:42044:1,2017-01-05T18:00:00Z,26.1914,-97.0507,2.0,173.586696,33.84176857,-99999.0,'11111222,11111222,99999999' 
TABS,ioos:station:wmo:42044:1,2017-01-05T18:30:00Z,26.1914,-97.0507,2.0,173.4573803,33.79004883,-99999.0,'11111222,11111222,99999999' 
TABS,ioos:station:wmo:42044:1,2017-01-05T19:00:00Z,26.1914,-97.0507,2.0,176.0170757,35.70622915,-99999.0,'11111222,11111222,99999999' 
TABS,ioos:station:wmo:42044:1,2017-01-05T19:30:00Z,26.1914,-97.0507,2.0,176.5410733,34.64310177,-99999.0,'11111222,11111222,99999999' 
TABS,ioos:station:wmo:42044:1,2017-01-05T20:00:00Z,26.1914,-97.0507,2.0,180.965084,35.6150544,-99999.0,'11111222,11111222,99999999' 
TABS,ioos:station:wmo:42044:1,2017-01-05T20:30:00Z,26.1914,-97.0507,2.0,182.0352885,37.16344979,-99999.0,'11111222,11111222,99999999' 
TABS,ioos:station:wmo:42044:1,2017-01-05T21:00:00Z,26.1914,-97.0507,2.0,183.4564006,35.82517551,-99999.0,'11111222,11111222,99999999' 
TABS,ioos:station:wmo:42044:1,2017-01-05T21:30:00Z,26.1914,-97.0507,2.0,187.7761282,34.58808032,-99999.0,'11111222,11111222,99999999' 
TABS,ioos:station:wmo:42044:1,2017-01-05T22:00:00Z,26.1914,-97.0507,2.0,188.683233,32.65429987,-99999.0,'11111222,11111222,99999999' 
TABS,ioos:station:wmo:42044:1,2017-01-05T22:30:00Z,26.1914,-97.0507,2.0,197.0961538,33.30154651,-99999.0,'11111222,11111222,99999999' 
TABS,ioos:station:wmo:42044:1,2017-01-05T23:00:00Z,26.1914,-97.0507,2.0,199.0285064,29.59734616,-99999.0,'11111222,11111222,99999999' 
TABS,ioos:station:wmo:42044:1,2017-01-05T23:30:00Z,26.1914,-97.0507,2.0,202.9696112,32.2359861,-99999.0,'11111222,11111222,99999999' 
TABS,ioos:station:wmo:42044:1,2017-01-06T00:00:00Z,26.1914,-97.0507,2.0,205.3879124,31.79017616,-99999.0,'11111222,11111222,99999999' 
TABS,ioos:station:wmo:42044:1,2017-01-06T00:30:00Z,26.1914,-97.0507,2.0,211.1884347,31.01232819,-99999.0,'11111222,11111222,99999999' 
TABS,ioos:station:wmo:42044:1,2017-01-06T01:00:00Z,26.1914,-97.0507,2.0,217.5682937,26.56997554,-99999.0,'11111222,11111222,99999999' 
TABS,ioos:station:wmo:42044:1,2017-01-06T01:30:00Z,26.1914,-97.0507,2.0,216.3656139,25.01096759,-99999.0,'11111222,11111222,99999999' 
TABS,ioos:station:wmo:42044:1,2017-01-06T02:00:00Z,26.1914,-97.0507,2.0,218.9699212,24.5024611,-99999.0,'11111222,11111222,99999999' 
TABS,ioos:station:wmo:42044:1,2017-01-06T02:30:00Z,26.1914,-97.0507,2.0,217.5713719,22.69770253,-99999.0,'11111222,11111222,99999999' 
TABS,ioos:station:wmo:42044:1,2017-01-06T03:00:00Z,26.1914,-97.0507,2.0,216.0379199,19.42804674,-99999.0,'11111222,11111222,99999999' 
TABS,ioos:station:wmo:42044:1,2017-01-06T03:30:00Z,26.1914,-97.0507,2.0,217.8084669,17.4543433,-99999.0,'11111222,11111222,99999999' 
TABS,ioos:station:wmo:42044:1,2017-01-06T04:00:00Z,26.1914,-97.0507,2.0,209.9880305,14.30505505,-99999.0,'11111222,11111222,99999999' 
TABS,ioos:station:wmo:42044:1,2017-01-06T04:30:00Z,26.1914,-97.0507,2.0,196.0364996,12.92289828,-99999.0,'11111222,11111222,99999999' 
TABS,ioos:station:wmo:42044:1,2017-01-06T05:00:00Z,26.1914,-97.0507,2.0,176.6745665,12.24060864,-99999.0,'11111222,11111222,99999999' 
TABS,ioos:station:wmo:42044:1,2017-01-06T05:30:00Z,26.1914,-97.0507,2.0,170.1502224,13.62076723,-99999.0,'11111222,11111222,99999999' 
TABS,ioos:station:wmo:42044:1,2017-01-06T06:00:00Z,26.1914,-97.0507,2.0,170.489284,13.67800058,-99999.0,'11111222,11111222,99999999' 
TABS,ioos:station:wmo:42044:1,2017-01-06T06:30:00Z,26.1914,-97.0507,2.0,155.7604428,13.44537095,-99999.0,'11111222,11111222,99999999' 
TABS,ioos:station:wmo:42044:1,2017-01-06T07:00:00Z,26.1914,-97.0507,2.0,160.0231867,15.16228545,-99999.0,'11111222,11111222,99999999' 
TABS,ioos:station:wmo:42044:1,2017-01-06T07:30:00Z,26.1914,-97.0507,2.0,157.7702204,17.39271112,-99999.0,'11111222,11111222,99999999' 
TABS,ioos:station:wmo:42044:1,2017-01-06T08:00:00Z,26.1914,-97.0507,2.0,160.4325171,22.72224021,-99999.0,'11111222,11111222,99999999' 
TABS,ioos:station:wmo:42044:1,2017-01-06T08:30:00Z,26.1914,-97.0507,2.0,160.7920192,25.31949842,-99999.0,'11111222,11111222,99999999' 
TABS,ioos:station:wmo:42044:1,2017-01-06T09:00:00Z,26.1914,-97.0507,2.0,168.2078839,24.71150744,-99999.0,'11111222,11111222,99999999' 
TABS,ioos:station:wmo:42044:1,2017-01-06T09:30:00Z,26.1914,-97.0507,2.0,169.0255095,27.78817194,-99999.0,'11111222,11111222,99999999' 
TABS,ioos:station:wmo:42044:1,2017-01-06T10:00:00Z,26.1914,-97.0507,2.0,174.9734041,32.41465255,-99999.0,'11111222,11111222,99999999' 
TABS,ioos:station:wmo:42044:1,2017-01-06T10:30:00Z,26.1914,-97.0507,2.0,179.3978179,32.36178611,-99999.0,'11111222,11111222,99999999' 
TABS,ioos:station:wmo:42044:1,2017-01-06T11:00:00Z,26.1914,-97.0507,2.0,188.095571,35.43312716,-99999.0,'11111222,11111222,99999999' 
TABS,ioos:station:wmo:42044:1,2017-01-06T11:30:00Z,26.1914,-97.0507,2.0,182.0616577,39.7457331,-99999.0,'11111222,11111222,99999999' 
TABS,ioos:station:wmo:42044:1,2017-01-06T12:00:00Z,26.1914,-97.0507,2.0,189.3130413,41.7098082,-99999.0,'11111222,11111222,99999999' 
TABS,ioos:station:wmo:42044:1,2017-01-06T12:30:00Z,26.1914,-97.0507,2.0,190.1683489,41.74571834,-99999.0,'11111222,11111222,99999999' 
TABS,ioos:station:wmo:42044:1,2017-01-06T13:00:00Z,26.1914,-97.0507,2.0,187.4276206,48.57764198,-99999.0,'11111222,11111222,99999999' 
TABS,ioos:station:wmo:42044:1,2017-01-06T13:30:00Z,26.1914,-97.0507,2.0,188.7383244,51.53826249,-99999.0,'11111222,11111222,99999999' 
TABS,ioos:station:wmo:42044:1,2017-01-06T14:00:00Z,26.1914,-97.0507,2.0,184.0331912,53.17169548,-99999.0,'11111222,11111222,99999999' 
TABS,ioos:station:wmo:42044:1,2017-01-06T14:30:00Z,26.1914,-97.0507,2.0,181.0947266,58.61070209,-99999.0,'11111222,11111222,99999999' 
TABS,ioos:station:wmo:42044:1,2017-01-06T15:00:00Z,26.1914,-97.0507,2.0,178.9889029,62.34970409,-99999.0,'11111222,11111222,99999999' 
TABS,ioos:station:wmo:42044:1,2017-01-06T15:30:00Z,26.1914,-97.0507,2.0,172.1797818,61.14866147,-99999.0,'11111222,11111222,99999999' 
TABS,ioos:station:wmo:42044:1,2017-01-06T16:00:00Z,26.1914,-97.0507,2.0,173.4551707,56.32706277,-99999.0,'11111222,11111222,99999999' 
TABS,ioos:station:wmo:42044:1,2017-01-06T16:30:00Z,26.1914,-97.0507,2.0,167.6733889,55.27422546,-99999.0,'11111222,11111222,99999999' 
TABS,ioos:station:wmo:42044:1,2017-01-06T17:00:00Z,26.1914,-97.0507,2.0,172.5221071,57.63011019,-99999.0,'11111222,11111222,99999999' 
TABS,ioos:station:wmo:42044:1,2017-01-06T17:30:00Z,26.1914,-97.0507,2.0,177.7110512,61.3489405,-99999.0,'11111222,11111222,99999999' 
TABS,ioos:station:wmo:42044:1,2017-01-06T18:00:00Z,26.1914,-97.0507,2.0,181.0485421,62.83052522,-99999.0,'11111222,11111222,99999999' 
TABS,ioos:station:wmo:42044:1,2017-01-06T18:30:00Z,26.1914,-97.0507,2.0,169.5554165,64.26478429,-99999.0,'11111222,11111222,99999999' 
TABS,ioos:station:wmo:42044:1,2017-01-06T19:00:00Z,26.1914,-97.0507,2.0,180.5664742,58.64286828,-99999.0,'11111222,11111222,99999999' 
TABS,ioos:station:wmo:42044:1,2017-01-06T19:30:00Z,26.1914,-97.0507,2.0,164.5129546,89.76937674,-99999.0,'11111222,11111222,99999999' 
TABS,ioos:station:wmo:42044:1,2017-01-06T20:00:00Z,26.1914,-97.0507,2.0,155.9079719,87.6773956,-99999.0,'11111222,11111222,99999999' 
TABS,ioos:station:wmo:42044:1,2017-01-06T20:30:00Z,26.1914,-97.0507,2.0,166.924009,78.27966914,-99999.0,'11111222,11111222,99999999' 
TABS,ioos:station:wmo:42044:1,2017-01-06T21:00:00Z,26.1914,-97.0507,2.0,159.7781924,79.21245672,-99999.0,'11111222,11111222,99999999' 
TABS,ioos:station:wmo:42044:1,2017-01-06T21:30:00Z,26.1914,-97.0507,2.0,178.7064353,65.12659211,-99999.0,'11111222,11111222,99999999' 
TABS,ioos:station:wmo:42044:1,2017-01-06T22:00:00Z,26.1914,-97.0507,2.0,179.9640412,64.11001248,-99999.0,'11111222,11111222,99999999' 
TABS,ioos:station:wmo:42044:1,2017-01-06T22:30:00Z,26.1914,-97.0507,2.0,176.5736532,58.06377959,-99999.0,'11111222,11111222,99999999' 
TABS,ioos:station:wmo:42044:1,2017-01-06T23:00:00Z,26.1914,-97.0507,2.0,175.8530414,62.09255189,-99999.0,'11111222,11111222,99999999' 
TABS,ioos:station:wmo:42044:1,2017-01-06T23:30:00Z,26.1914,-97.0507,2.0,180.4528658,58.17181878,-99999.0,'11111222,11111222,99999999' 
TABS,ioos:station:wmo:42044:1,2017-01-07T00:00:00Z,26.1914,-97.0507,2.0,178.1978906,58.19877834,-99999.0,'11111222,11111222,99999999' 
TABS,ioos:station:wmo:42044:1,2017-01-07T00:30:00Z,26.1914,-97.0507,2.0,178.9562684,60.40001738,-99999.0,'11111222,11111222,99999999' 
TABS,ioos:station:wmo:42044:1,2017-01-07T01:00:00Z,26.1914,-97.0507,2.0,178.8766896,56.12078136,-99999.0,'11111222,11111222,99999999' 
TABS,ioos:station:wmo:42044:1,2017-01-07T01:30:00Z,26.1914,-97.0507,2.0,175.9800302,66.33318476,-99999.0,'11111222,11111222,99999999' 
TABS,ioos:station:wmo:42044:1,2017-01-07T02:00:00Z,26.1914,-97.0507,2.0,178.2195656,57.29765527,-99999.0,'11111222,11111222,99999999' 
TABS,ioos:station:wmo:42044:1,2017-01-07T02:30:00Z,26.1914,-97.0507,2.0,184.229164,57.35619321,-99999.0,'11111222,11111222,99999999' 
TABS,ioos:station:wmo:42044:1,2017-01-07T03:00:00Z,26.1914,-97.0507,2.0,173.5893451,50.42528136,-99999.0,'11111222,11111222,99999999' 
TABS,ioos:station:wmo:42044:1,2017-01-07T03:30:00Z,26.1914,-97.0507,2.0,176.4097374,59.88752291,-99999.0,'11111222,11111222,99999999' 
TABS,ioos:station:wmo:42044:1,2017-01-07T04:00:00Z,26.1914,-97.0507,2.0,176.0417165,61.13582011,-99999.0,'11111222,11111222,99999999' 
TABS,ioos:station:wmo:42044:1,2017-01-07T04:30:00Z,26.1914,-97.0507,2.0,173.4975441,59.34172225,-99999.0,'11111222,11111222,99999999' 
TABS,ioos:station:wmo:42044:1,2017-01-07T05:00:00Z,26.1914,-97.0507,2.0,178.112843,61.04310117,-99999.0,'11111222,11111222,99999999' 
TABS,ioos:station:wmo:42044:1,2017-01-07T05:30:00Z,26.1914,-97.0507,2.0,182.3337057,58.6886846,-99999.0,'11111222,11111222,99999999' 
TABS,ioos:station:wmo:42044:1,2017-01-07T06:00:00Z,26.1914,-97.0507,2.0,178.3506584,57.33374748,-99999.0,'11111222,11111222,99999999' 
TABS,ioos:station:wmo:42044:1,2017-01-07T06:30:00Z,26.1914,-97.0507,2.0,175.5343891,61.2659718,-99999.0,'11111222,11111222,99999999' 
TABS,ioos:station:wmo:42044:1,2017-01-07T07:00:00Z,26.1914,-97.0507,2.0,183.6377397,57.99686888,-99999.0,'11111222,11111222,99999999' 
TABS,ioos:station:wmo:42044:1,2017-01-07T07:30:00Z,26.1914,-97.0507,2.0,179.1236136,64.08749332,-99999.0,'11111222,11111222,99999999' 
TABS,ioos:station:wmo:42044:1,2017-01-07T08:00:00Z,26.1914,-97.0507,2.0,178.5735555,58.65817249,-99999.0,'11111222,11111222,99999999' 
TABS,ioos:station:wmo:42044:1,2017-01-07T08:30:00Z,26.1914,-97.0507,2.0,179.2157824,57.73540508,-99999.0,'11111222,11111222,99999999' 
TABS,ioos:station:wmo:42044:1,2017-01-07T09:00:00Z,26.1914,-97.0507,2.0,179.4548252,63.08285345,-99999.0,'11111222,11111222,99999999' 
TABS,ioos:station:wmo:42044:1,2017-01-07T09:30:00Z,26.1914,-97.0507,2.0,179.4450395,63.00295311,-99999.0,'11111222,11111222,99999999' 
TABS,ioos:station:wmo:42044:1,2017-01-07T10:00:00Z,26.1914,-97.0507,2.0,179.6236346,62.45134586,-99999.0,'11111222,11111222,99999999' 
TABS,ioos:station:wmo:42044:1,2017-01-07T10:30:00Z,26.1914,-97.0507,2.0,177.9745688,62.81923909,-99999.0,'11111222,11111222,99999999' 
TABS,ioos:station:wmo:42044:1,2017-01-07T11:00:00Z,26.1914,-97.0507,2.0,184.7101026,59.79194093,-99999.0,'11111222,11111222,99999999' 
TABS,ioos:station:wmo:42044:1,2017-01-07T11:30:00Z,26.1914,-97.0507,2.0,186.9394112,62.48778601,-99999.0,'11111222,11111222,99999999' 
TABS,ioos:station:wmo:42044:1,2017-01-07T12:00:00Z,26.1914,-97.0507,2.0,180.3475972,67.54124444,-99999.0,'11111222,11111222,99999999' 
TABS,ioos:station:wmo:42044:1,2017-01-07T12:30:00Z,26.1914,-97.0507,2.0,182.5134138,62.0196743,-99999.0,'11111222,11111222,99999999' 
TABS,ioos:station:wmo:42044:1,2017-01-07T13:00:00Z,26.1914,-97.0507,2.0,185.1591744,56.26797668,-99999.0,'11111222,11111222,99999999' 
TABS,ioos:station:wmo:42044:1,2017-01-07T13:30:00Z,26.1914,-97.0507,2.0,175.0377269,58.26837993,-99999.0,'11111222,11111222,99999999' 
TABS,ioos:station:wmo:42044:1,2017-01-07T14:00:00Z,26.1914,-97.0507,2.0,177.4772546,58.84702371,-99999.0,'11111222,11111222,99999999' 
TABS,ioos:station:wmo:42044:1,2017-01-07T14:30:00Z,26.1914,-97.0507,2.0,181.6937688,56.15454122,-99999.0,'11111222,11111222,99999999' 
TABS,ioos:station:wmo:42044:1,2017-01-07T15:00:00Z,26.1914,-97.0507,2.0,180.1837564,56.06028898,-99999.0,'11111222,11111222,99999999' 
TABS,ioos:station:wmo:42044:1,2017-01-07T15:30:00Z,26.1914,-97.0507,2.0,182.8999282,50.79505685,-99999.0,'11111222,11111222,99999999' 
TABS,ioos:station:wmo:42044:1,2017-01-07T16:00:00Z,26.1914,-97.0507,2.0,180.0887233,51.54006209,-99999.0,'11111222,11111222,99999999' 
TABS,ioos:station:wmo:42044:1,2017-01-07T16:30:00Z,26.1914,-97.0507,2.0,185.958103,49.70854253,-99999.0,'11111222,11111222,99999999' 
TABS,ioos:station:wmo:42044:1,2017-01-07T17:00:00Z,26.1914,-97.0507,2.0,182.1816491,48.85541935,-99999.0,'11111222,11111222,99999999' 
TABS,ioos:station:wmo:42044:1,2017-01-07T17:30:00Z,26.1914,-97.0507,2.0,181.2401126,49.43158201,-99999.0,'11111222,11111222,99999999' 
TABS,ioos:station:wmo:42044:1,2017-01-07T18:00:00Z,26.1914,-97.0507,2.0,179.4812911,46.41190041,-99999.0,'11111222,11111222,99999999' 
TABS,ioos:station:wmo:42044:1,2017-01-07T18:30:00Z,26.1914,-97.0507,2.0,180.8605569,51.25578406,-99999.0,'11111222,11111222,99999999' 
TABS,ioos:station:wmo:42044:1,2017-01-07T19:00:00Z,26.1914,-97.0507,2.0,179.6432087,44.9908713,-99999.0,'11111222,11111222,99999999' 
TABS,ioos:station:wmo:42044:1,2017-01-07T19:30:00Z,26.1914,-97.0507,2.0,182.0890475,46.63099827,-99999.0,'11111222,11111222,99999999' 
TABS,ioos:station:wmo:42044:1,2017-01-07T20:00:00Z,26.1914,-97.0507,2.0,177.7269425,45.13550819,-99999.0,'11111222,11111222,99999999' 
TABS,ioos:station:wmo:42044:1,2017-01-07T20:30:00Z,26.1914,-97.0507,2.0,186.7857962,41.29932808,-99999.0,'11111222,11111222,99999999' 
TABS,ioos:station:wmo:42044:1,2017-01-07T21:00:00Z,26.1914,-97.0507,2.0,180.1766638,48.59023153,-99999.0,'11111222,11111222,99999999' 
TABS,ioos:station:wmo:42044:1,2017-01-07T21:30:00Z,26.1914,-97.0507,2.0,188.0374606,43.84067746,-99999.0,'11111222,11111222,99999999' 
TABS,ioos:station:wmo:42044:1,2017-01-07T22:00:00Z,26.1914,-97.0507,2.0,186.4879357,48.31947537,-99999.0,'11111222,11111222,99999999' 
TABS,ioos:station:wmo:42044:1,2017-01-07T22:30:00Z,26.1914,-97.0507,2.0,186.3399665,31.51274028,-99999.0,'11111222,11111222,99999999' 
TABS,ioos:station:wmo:42044:1,2017-01-07T23:00:00Z,26.1914,-97.0507,2.0,180.9999029,34.37523673,-99999.0,'11111222,11111222,99999999' 
TABS,ioos:station:wmo:42044:1,2017-01-07T23:30:00Z,26.1914,-97.0507,2.0,170.8905147,44.02524049,-99999.0,'11111222,11111222,99999999' 
TABS,ioos:station:wmo:42044:1,2017-01-08T00:00:00Z,26.1914,-97.0507,2.0,172.8674121,48.16268784,-99999.0,'11111222,11111222,99999999' 
TABS,ioos:station:wmo:42044:1,2017-01-08T00:30:00Z,26.1914,-97.0507,2.0,176.6166166,48.29416735,-99999.0,'11111222,11111222,99999999' 
TABS,ioos:station:wmo:42044:1,2017-01-08T01:00:00Z,26.1914,-97.0507,2.0,184.684305,40.896616,-99999.0,'11111222,11111222,99999999' 
TABS,ioos:station:wmo:42044:1,2017-01-08T01:30:00Z,26.1914,-97.0507,2.0,180.0123489,45.6200011,-99999.0,'11111222,11111222,99999999' 
TABS,ioos:station:wmo:42044:1,2017-01-08T02:00:00Z,26.1914,-97.0507,2.0,176.4760396,49.62381888,-99999.0,'11111222,11111222,99999999' 
TABS,ioos:station:wmo:42044:1,2017-01-08T02:30:00Z,26.1914,-97.0507,2.0,182.0120225,52.40231388,-99999.0,'11111222,11111222,99999999' 
TABS,ioos:station:wmo:42044:1,2017-01-08T03:00:00Z,26.1914,-97.0507,2.0,180.2359704,53.37045344,-99999.0,'11111222,11111222,99999999' 
TABS,ioos:station:wmo:42044:1,2017-01-08T03:30:00Z,26.1914,-97.0507,2.0,179.394803,44.5124814,-99999.0,'11111222,11111222,99999999' 
TABS,ioos:station:wmo:42044:1,2017-01-08T04:00:00Z,26.1914,-97.0507,2.0,177.8376833,41.87981495,-99999.0,'11111222,11111222,99999999' 
TABS,ioos:station:wmo:42044:1,2017-01-08T04:30:00Z,26.1914,-97.0507,2.0,179.507571,40.74150341,-99999.0,'11111222,11111222,99999999' 
TABS,ioos:station:wmo:42044:1,2017-01-08T05:00:00Z,26.1914,-97.0507,2.0,170.9686652,50.90101178,-99999.0,'11111222,11111222,99999999' 
TABS,ioos:station:wmo:42044:1,2017-01-08T05:30:00Z,26.1914,-97.0507,2.0,180.1187834,48.15010384,-99999.0,'11111222,11111222,99999999' 
TABS,ioos:station:wmo:42044:1,2017-01-08T06:00:00Z,26.1914,-97.0507,2.0,175.4628814,53.0963737,-99999.0,'11111222,11111222,99999999' 
TABS,ioos:station:wmo:42044:1,2017-01-08T06:30:00Z,26.1914,-97.0507,2.0,173.0468483,53.28184118,-99999.0,'11111222,11111222,99999999' 
TABS,ioos:station:wmo:42044:1,2017-01-08T07:00:00Z,26.1914,-97.0507,2.0,174.3750901,51.11611292,-99999.0,'11111222,11111222,99999999' 
TABS,ioos:station:wmo:42044:1,2017-01-08T07:30:00Z,26.1914,-97.0507,2.0,167.5740652,50.05244549,-99999.0,'11111222,11111222,99999999' 
TABS,ioos:station:wmo:42044:1,2017-01-08T08:00:00Z,26.1914,-97.0507,2.0,159.7766765,49.95985689,-99999.0,'11111222,11111222,99999999' 
TABS,ioos:station:wmo:42044:1,2017-01-08T08:30:00Z,26.1914,-97.0507,2.0,160.8183192,56.30597126,-99999.0,'11111222,11111222,99999999' 
TABS,ioos:station:wmo:42044:1,2017-01-08T09:00:00Z,26.1914,-97.0507,2.0,165.5656669,60.41708119,-99999.0,'11111222,11111222,99999999' 
TABS,ioos:station:wmo:42044:1,2017-01-08T09:30:00Z,26.1914,-97.0507,2.0,165.2191291,64.40106987,-99999.0,'11111222,11111222,99999999' 
TABS,ioos:station:wmo:42044:1,2017-01-08T10:00:00Z,26.1914,-97.0507,2.0,169.4152293,69.2482729,-99999.0,'11111222,11111222,99999999' 
TABS,ioos:station:wmo:42044:1,2017-01-08T10:30:00Z,26.1914,-97.0507,2.0,170.8460015,68.39097016,-99999.0,'11111222,11111222,99999999' 
TABS,ioos:station:wmo:42044:1,2017-01-08T11:00:00Z,26.1914,-97.0507,2.0,172.7534794,76.742943,-99999.0,'11111222,11111222,99999999' 
TABS,ioos:station:wmo:42044:1,2017-01-08T11:30:00Z,26.1914,-97.0507,2.0,172.0590574,72.74754291,-99999.0,'11111222,11111222,99999999' 
TABS,ioos:station:wmo:42044:1,2017-01-08T12:00:00Z,26.1914,-97.0507,2.0,171.2851334,73.32654703,-99999.0,'11111222,11111222,99999999' 
TABS,ioos:station:wmo:42044:1,2017-01-08T12:30:00Z,26.1914,-97.0507,2.0,172.9926209,74.18409129,-99999.0,'11111222,11111222,99999999' 
TABS,ioos:station:wmo:42044:1,2017-01-08T13:00:00Z,26.1914,-97.0507,2.0,169.2094348,70.50664933,-99999.0,'11111222,11111222,99999999' 
TABS,ioos:station:wmo:42044:1,2017-01-08T13:30:00Z,26.1914,-97.0507,2.0,168.058104,65.63033216,-99999.0,'11111222,11111222,99999999' 
TABS,ioos:station:wmo:42044:1,2017-01-08T14:00:00Z,26.1914,-97.0507,2.0,173.251836,61.44565729,-99999.0,'11111222,11111222,99999999' 
TABS,ioos:station:wmo:42044:1,2017-01-08T14:30:00Z,26.1914,-97.0507,2.0,175.4344601,55.90738234,-99999.0,'11111222,11111222,99999999' 
TABS,ioos:station:wmo:42044:1,2017-01-08T15:00:00Z,26.1914,-97.0507,2.0,176.6888558,58.1771089,-99999.0,'11111222,11111222,99999999' 
TABS,ioos:station:wmo:42044:1,2017-01-08T15:30:00Z,26.1914,-97.0507,2.0,173.9567972,55.5687871,-99999.0,'11111222,11111222,99999999' 
TABS,ioos:station:wmo:42044:1,2017-01-08T16:00:00Z,26.1914,-97.0507,2.0,171.1895102,52.29706015,-99999.0,'11111222,11111222,99999999' 